AirNav   Air Wisconsin Up To $57,000 Bonus
 
 1079 users online  

NY40 Gentzke Aeronautical Park Airport
Holland, New York, USA

GOING TO HOLLAND?


FAA INFORMATION EFFECTIVE 07 OCTOBER 2021

Location

FAA Identifier: NY40
Lat/Long: 42-36-38.2200N 078-35-44.0860W
42-36.637000N 078-35.734767W
42.6106167,-78.5955794
(estimated)
Elevation: 1750 ft. / 533 m (estimated)
Variation: 10W (1985)
From city: 4 miles SW of HOLLAND, NY
Time zone: UTC -4 (UTC -5 during Standard Time)
Zip code: 14080

Airport Operations

Airport use: CLOSED INDEFINITELY
Activation date: 11/1988
Control tower: no
ARTCC: CLEVELAND CENTER
FSS: BUFFALO FLIGHT SERVICE STATION
Attendance: UNATNDD
Wind indicator: yes
Segmented circle: no

Nearby radio navigation aids

VOR radial/distance  VOR name  Freq  Var
BUFr181/19.2BUFFALO VOR/DME116.4008W
JHWr050/34.4JAMESTOWN VOR/DME114.7007W

Airport Services

Runway Information

Runway E/W

Dimensions: 2000 x 100 ft. / 610 x 30 m
Surface: turf
RUNWAY E  RUNWAY W
Traffic pattern: leftleft
Obstructions: pline50 ft. trees, 500 ft. from runway

Airport Ownership and Management from official FAA records

Ownership: Privately-owned
Owner: GLENN D. GENTZKE
10661 CRUMP RD
HOLLAND, NY 14080
Phone 716 592-2023
Manager: GLENN D. GENTZKE
10661 CRUMP RD
HOLLAND, NY 14080
Phone 716 592-2023

Airport Operational Statistics

Aircraft based on the field: 3
Single engine airplanes: 3
    

Additional Remarks

FOR CD CTC CLEVELAND ARTCC AT 440-774-0490.
(ARPT STATUS) ARPT CLSD INDEFLY.

Instrument Procedures

There are no published instrument procedures at NY40.

Some nearby airports with instrument procedures:

9G0 - Buffalo Airfield (16 nm N)
KBUF - Buffalo Niagara International Airport (21 nm N)
KOLE - Cattaraugus County-Olean Airport (24 nm SE)
9G3 - Akron Airport/Jesson Field (25 nm N)
KDKK - Chautauqua County/Dunkirk Airport (31 nm W)
 
Loc | Ops | Rwys | IFR | FBO | Links
Com | Nav | Svcs | Stats | Notes
Area around NY40 (Gentzke Aeronautical Park Airport)
 
Road maps at: MapQuest Bing Google
 
Aerial photo
No photo
 
Sectional chart

 
Airport distance calculator
Flying to Gentzke Aeronautical Park Airport? Find the distance to fly.

From to NY40

Sunrise and sunset
Times for 19-Oct-2021
 Local
(UTC-4)
 Zulu
(UTC)
Morning civil twilight07:0511:05
Sunrise07:3311:33
Sunset18:2622:26
Evening civil twilight18:5422:54

Current date and time
Zulu (UTC)  20-Oct-2021 00:36:17
Local (UTC-4)  19-Oct-2021 20:36:17
 
METAR
KBUF 
20nm N 
192354Z 25012KT 10SM SCT280 17/13 A3002 RMK AO2 SLP166 T01720133 10189 20172 53006
KDKK 
31nm W 
192353Z AUTO 22008KT 10SM 16/12 A3005 RMK AO2 SLP178 60000 T01610122 10194 20156 53004 $
KGVQ 
32nm NE 
192356Z AUTO 28012G20KT 10SM CLR 16/13 A3000 RMK AO2 SLP159 T01560128 10183 20156 53006
CWPC 
33nm NW 
200000Z AUTO 27023KT 17/15 RMK AO1 PK WND 26028/2335 SLP176 T01740149 53007
KIAG 
34nm NW 
192353Z 24011KT 10SM CLR 16/12 A3001 RMK AO2 SLP166 T01610122 10211 20161 53008
KDSV 
39nm E 
192354Z AUTO 12003KT 10SM CLR 12/08 A3002 RMK AO2 SLP175 T01220078 10206 20122 52008
TAF
KBUF 
20nm N 
192056Z 1921/2018 25018G28KT P6SM FEW250 FM192300 24012G18KT P6SM FEW250 FM200500 25010KT P6SM FEW250 FM201500 24012G18KT P6SM SCT100
NOTAMs
Click for the latest NOTAMs
NOTAMs are issued by the DoD/FAA and will open in a separate window not controlled by AirNav.

 

 
 

Would you like to see your business listed on this page?

 If your business provides an interesting product or service to pilots, flight crews, aircraft, or users of the Gentzke Aeronautical Park Airport, you should consider listing it here.  To start the listing process, click on the button below
 
Add a business
 

Other Pages about Gentzke Aeronautical Park Airport

Update a link
 
Copyright © AirNav, LLC. All rights reserved. Privacy Policy  Contact